Simultaneous Nadir Overpasses (SNOs) Predictions

Prediction of SNOs between FY3D and AQUA Satellite Orbit:

Table of predicted SNOs for the next 14.0 days since TLE Epoch: 2/18/2023
Index Date (FY3D) Time (FY3D) Lat,Lon (FY3D) SZA (FY3D ) Date (AQUA) Time (AQUA) Lat,Lon (AQUA) SZA (AQUA ) Distance(km) Time Diff (sec)
1 02/20/2023 15:28:13 -78.01, 111.20 90.48 02/20/2023 15:28:28 -78.00, 111.24 90.50 1.07 15
2 02/20/2023 16:18:46 77.52, -79.02 88.88 02/20/2023 16:17:42 77.51, -78.94 88.88 1.99 64
3 02/23/2023 05:14:04 78.37, 82.77 89.07 02/23/2023 05:15:12 78.37, 82.84 89.04 1.78 68
4 02/23/2023 06:04:33 -77.72,-106.39 91.81 02/23/2023 06:04:22 -77.73,-106.51 91.79 3.02 11
5 02/25/2023 19:50:28 78.22,-135.43 87.89 02/25/2023 19:51:08 78.21,-135.36 87.87 1.91 40
6 02/25/2023 20:40:57 -77.56, 35.31 92.99 02/25/2023 20:40:18 -77.57, 35.22 92.96 2.28 39
7 02/28/2023 10:26:51 78.04, 6.49 86.66 02/28/2023 10:27:02 78.04, 6.52 86.65 0.60 11
8 02/28/2023 11:17:19 -77.32, 177.32 94.27 02/28/2023 11:16:11 -77.34, 177.21 94.23 2.95 68
9 03/03/2023 00:12:39 -78.30, -21.39 93.98 03/03/2023 00:13:39 -78.30, -21.39 93.99 0.07 60



Historial Predications of SNOs between FY3D and AQUA
